OK2ZAW-21 Weather Reports


Display with metric or nautical units.
time (UTC)temp
F
wind
direction
speed
MPH
gust
MPH
rain 1hr
in
rain 24hr
in
rain mn
in
humidity
%
barometer
mb
20260504150852 71 0 0.0 0.0 0.00 0.00 0.00 42 1015.5
20260504150845 71 0 0.0 0.0 0.00 0.00 0.00 42 1015.5
20260504150555 73 0 0.0 0.0 0.00 0.00 0.00 41 1015.5
20260504150330 73 0 0.0 0.0 0.00 0.00 0.00 41 1015.5
20260504150208 74 0 0.0 0.0 0.00 0.00 0.00 40 1015.6
20260504141323 76 0 0.0 0.0 0.00 0.00 0.00 39 1016.0
20260504141259 76 0 0.0 0.0 0.00 0.00 0.00 40 1016.0
20260504141253 76 0 0.0 0.0 0.00 0.00 0.00 40 1016.0
20260504141221 76 0 0.0 0.0 0.00 0.00 0.00 40 1016.0
20260504141146 76 0 0.0 0.0 0.00 0.00 0.00 40 1015.9
20260504141121 76 0 0.0 0.0 0.00 0.00 0.00 40 1015.9
20260504141115 76 0 0.0 0.0 0.00 0.00 0.00 40 1015.9
20260504141009 76 0 0.0 0.0 0.00 0.00 0.00 40 1016.0
20260504140945 76 0 0.0 0.0 0.00 0.00 0.00 41 1015.9
20260504140939 76 0 0.0 0.0 0.00 0.00 0.00 41 1015.9
20260504140913 76 0 0.0 0.0 0.00 0.00 0.00 41 1015.9
20260504140907 76 0 0.0 0.0 0.00 0.00 0.00 41 1015.9
20260504140835 76 0 0.0 0.0 0.00 0.00 0.00 40 1016.0
20260504140811 76 0 0.0 0.0 0.00 0.00 0.00 39 1016.0
20260504140805 76 0 0.0 0.0 0.00 0.00 0.00 39 1016.0
20260504140739 76 0 0.0 0.0 0.00 0.00 0.00 40 1016.0
20260504140733 76 0 0.0 0.0 0.00 0.00 0.00 40 1016.0
20260504140703 76 0 0.0 0.0 0.00 0.00 0.00 40 1016.1
20260504140657 76 0 0.0 0.0 0.00 0.00 0.00 40 1016.1
20260504140633 75 0 0.0 0.0 0.00 0.00 0.00 40 1016.0
20260504140627 75 0 0.0 0.0 0.00 0.00 0.00 40 1016.0
20260504140557 75 0 0.0 0.0 0.00 0.00 0.00 40 1016.1
20260504140525 75 0 0.0 0.0 0.00 0.00 0.00 41 1016.1
20260504140457 75 0 0.0 0.0 0.00 0.00 0.00 41 1016.1
20260504140451 75 0 0.0 0.0 0.00 0.00 0.00 41 1016.1
20260504140421 75 0 0.0 0.0 0.00 0.00 0.00 41 1016.2
20260504140357 75 0 0.0 0.0 0.00 0.00 0.00 42 1016.0
20260504140351 75 0 0.0 0.0 0.00 0.00 0.00 42 1016.0
20260504140313 74 0 0.0 0.0 0.00 0.00 0.00 42 1016.1
20260504140243 74 0 0.0 0.0 0.00 0.00 0.00 43 1016.1
20260504140217 74 0 0.0 0.0 0.00 0.00 0.00 43 1016.0
20260504140212 74 0 0.0 0.0 0.00 0.00 0.00 43 1016.0
20260504140147 74 0 0.0 0.0 0.00 0.00 0.00 43 1016.0
20260504140141 74 0 0.0 0.0 0.00 0.00 0.00 43 1016.0
20260504140109 74 0 0.0 0.0 0.00 0.00 0.00 42 1016.1
20260504130821 75 0 0.0 0.0 0.00 0.00 0.00 39 1016.4
20260504130749 75 0 0.0 0.0 0.00 0.00 0.00 38 1016.4
20260504130645 75 0 0.0 0.0 0.00 0.00 0.00 40 1016.4
20260504130611 76 0 0.0 0.0 0.00 0.00 0.00 37 1016.4
20260504130604 74 0 0.0 0.0 0.00 0.00 0.00 40 1016.4
20260504130539 74 0 0.0 0.0 0.00 0.00 0.00 40 1016.4
20260504130533 74 0 0.0 0.0 0.00 0.00 0.00 40 1016.4
20260504130509 74 0 0.0 0.0 0.00 0.00 0.00 41 1016.4
20260504130503 74 0 0.0 0.0 0.00 0.00 0.00 41 1016.4
20260504130427 74 0 0.0 0.0 0.00 0.00 0.00 40 1016.4
20260504130353 74 0 0.0 0.0 0.00 0.00 0.00 39 1016.5
20260504130322 74 0 0.0 0.0 0.00 0.00 0.00 39 1016.4
20260504130315 74 0 0.0 0.0 0.00 0.00 0.00 39 1016.4
20260504130245 74 0 0.0 0.0 0.00 0.00 0.00 39 1016.5
20260504130209 74 0 0.0 0.0 0.00 0.00 0.00 39 1016.5
20260504130141 74 0 0.0 0.0 0.00 0.00 0.00 39 1016.4
20260504130135 74 0 0.0 0.0 0.00 0.00 0.00 39 1016.4
20260504130111 74 0 0.0 0.0 0.00 0.00 0.00 39 1016.5
20260504130105 74 0 0.0 0.0 0.00 0.00 0.00 39 1016.5
20260504120303 74 0 0.0 0.0 0.00 0.00 0.00 41 1016.8
20260504120257 74 0 0.0 0.0 0.00 0.00 0.00 41 1016.8
20260504120229 74 0 0.0 0.0 0.00 0.00 0.00 41 1016.8
20260504120223 74 0 0.0 0.0 0.00 0.00 0.00 41 1016.8
20260504120145 74 0 0.0 0.0 0.00 0.00 0.00 41 1016.9
20260504120111 74 0 0.0 0.0 0.00 0.00 0.00 42 1016.8
20260504110712 71 0 0.0 0.0 0.00 0.00 0.00 44 1017.3
20260504110705 71 0 0.0 0.0 0.00 0.00 0.00 44 1017.3
20260504110637 71 0 0.0 0.0 0.00 0.00 0.00 45 1017.3
20260504110631 71 0 0.0 0.0 0.00 0.00 0.00 45 1017.3
20260504110605 71 0 0.0 0.0 0.00 0.00 0.00 45 1017.3
20260504110559 71 0 0.0 0.0 0.00 0.00 0.00 45 1017.3
20260504110523 71 0 0.0 0.0 0.00 0.00 0.00 45 1017.3
20260504110453 71 0 0.0 0.0 0.00 0.00 0.00 45 1017.3
20260504110447 71 0 0.0 0.0 0.00 0.00 0.00 45 1017.3
20260504110417 71 0 0.0 0.0 0.00 0.00 0.00 45 1017.3
20260504110411 71 0 0.0 0.0 0.00 0.00 0.00 45 1017.3
20260504110342 71 0 0.0 0.0 0.00 0.00 0.00 46 1017.3
20260504110335 71 0 0.0 0.0 0.00 0.00 0.00 46 1017.3
20260504110303 70 0 0.0 0.0 0.00 0.00 0.00 47 1017.3
20260504110235 70 0 0.0 0.0 0.00 0.00 0.00 47 1017.4
20260504110229 70 0 0.0 0.0 0.00 0.00 0.00 47 1017.4
20260504110159 70 0 0.0 0.0 0.00 0.00 0.00 46 1017.3
20260504110153 70 0 0.0 0.0 0.00 0.00 0.00 46 1017.3
20260504110121 70 0 0.0 0.0 0.00 0.00 0.00 47 1017.4
20260504100606 70 0 0.0 0.0 0.00 0.00 0.00 45 1017.7
20260504100531 70 0 0.0 0.0 0.00 0.00 0.00 47 1017.8
20260504100500 70 0 0.0 0.0 0.00 0.00 0.00 46 1017.7
20260504100423 70 0 0.0 0.0 0.00 0.00 0.00 44 1017.7
20260504100348 70 0 0.0 0.0 0.00 0.00 0.00 47 1017.7
20260504100320 70 0 0.0 0.0 0.00 0.00 0.00 46 1017.7
20260504100314 70 0 0.0 0.0 0.00 0.00 0.00 46 1017.7
20260504100238 70 0 0.0 0.0 0.00 0.00 0.00 46 1017.7
20260504100209 70 0 0.0 0.0 0.00 0.00 0.00 46 1017.8
20260504100130 70 0 0.0 0.0 0.00 0.00 0.00 45 1017.8
20260504090118 66 0 0.0 0.0 0.00 0.00 0.00 48 1017.9
20260504090112 66 0 0.0 0.0 0.00 0.00 0.00 48 1017.9
20260504082004 65 0 0.0 0.0 0.00 0.00 0.00 49 1017.7
20260504081922 65 0 0.0 0.0 0.00 0.00 0.00 50 1017.7
20260504081856 65 0 0.0 0.0 0.00 0.00 0.00 50 1017.7
20260504081850 65 0 0.0 0.0 0.00 0.00 0.00 50 1017.7
20260504081812 65 0 0.0 0.0 0.00 0.00 0.00 49 1017.7
20260504081742 65 0 0.0 0.0 0.00 0.00 0.00 49 1017.6
20260504081709 65 0 0.0 0.0 0.00 0.00 0.00 49 1017.7
20260504081702 65 0 0.0 0.0 0.00 0.00 0.00 49 1017.7
20260504081634 65 0 0.0 0.0 0.00 0.00 0.00 50 1017.7
20260504081628 65 0 0.0 0.0 0.00 0.00 0.00 50 1017.7
20260504081558 65 0 0.0 0.0 0.00 0.00 0.00 50 1017.6
20260504081554 65 0 0.0 0.0 0.00 0.00 0.00 50 1017.6
20260504081522 65 0 0.0 0.0 0.00 0.00 0.00 50 1017.6
20260504081444 65 0 0.0 0.0 0.00 0.00 0.00 51 1017.6
20260504081408 64 0 0.0 0.0 0.00 0.00 0.00 51 1017.6
20260504081325 64 0 0.0 0.0 0.00 0.00 0.00 51 1017.6
20260504081318 64 0 0.0 0.0 0.00 0.00 0.00 51 1017.6
20260504081242 64 0 0.0 0.0 0.00 0.00 0.00 51 1017.6
20260504081213 64 0 0.0 0.0 0.00 0.00 0.00 51 1017.6
20260504081206 64 0 0.0 0.0 0.00 0.00 0.00 51 1017.6
20260504081132 64 0 0.0 0.0 0.00 0.00 0.00 53 1017.6
20260504081126 64 0 0.0 0.0 0.00 0.00 0.00 53 1017.6
20260504081050 64 0 0.0 0.0 0.00 0.00 0.00 51 1017.6
20260504081014 64 0 0.0 0.0 0.00 0.00 0.00 50 1017.6
20260504080949 64 0 0.0 0.0 0.00 0.00 0.00 51 1017.6
20260504080942 64 0 0.0 0.0 0.00 0.00 0.00 51 1017.6
20260504080909 64 0 0.0 0.0 0.00 0.00 0.00 50 1017.6
20260504080902 64 0 0.0 0.0 0.00 0.00 0.00 50 1017.6
20260504080826 64 0 0.0 0.0 0.00 0.00 0.00 51 1017.5
20260504080754 64 0 0.0 0.0 0.00 0.00 0.00 50 1017.6
20260504080724 64 0 0.0 0.0 0.00 0.00 0.00 52 1017.5
20260504080718 64 0 0.0 0.0 0.00 0.00 0.00 52 1017.5
20260504080644 64 0 0.0 0.0 0.00 0.00 0.00 52 1017.5
20260504080616 64 0 0.0 0.0 0.00 0.00 0.00 51 1017.5
20260504080610 64 0 0.0 0.0 0.00 0.00 0.00 51 1017.5
20260504080540 64 0 0.0 0.0 0.00 0.00 0.00 52 1017.5
20260504080534 64 0 0.0 0.0 0.00 0.00 0.00 52 1017.5
20260504080506 64 0 0.0 0.0 0.00 0.00 0.00 52 1017.5
20260504080500 64 0 0.0 0.0 0.00 0.00 0.00 52 1017.5
20260504080424 64 0 0.0 0.0 0.00 0.00 0.00 53 1017.5
20260504080352 64 0 0.0 0.0 0.00 0.00 0.00 51 1017.5
20260504080318 63 0 0.0 0.0 0.00 0.00 0.00 53 1017.5
20260504080238 63 0 0.0 0.0 0.00 0.00 0.00 51 1017.5
20260504080204 63 0 0.0 0.0 0.00 0.00 0.00 51 1017.4
20260504080136 63 0 0.0 0.0 0.00 0.00 0.00 52 1017.5
20260504080106 63 0 0.0 0.0 0.00 0.00 0.00 52 1017.5
20260504070410 63 0 0.0 0.0 0.00 0.00 0.00 51 1017.0
20260504070340 63 0 0.0 0.0 0.00 0.00 0.00 50 1017.0
20260504070334 63 0 0.0 0.0 0.00 0.00 0.00 50 1017.0
20260504070258 63 0 0.0 0.0 0.00 0.00 0.00 51 1017.0
20260504070220 63 0 0.0 0.0 0.00 0.00 0.00 50 1017.0
20260504070144 63 0 0.0 0.0 0.00 0.00 0.00 50 1017.0
20260504070108 63 0 0.0 0.0 0.00 0.00 0.00 51 1017.0
20260504060244 55 0 0.0 0.0 0.00 0.00 0.00 63 1016.9
20260504060210 55 0 0.0 0.0 0.00 0.00 0.00 63 1016.9
20260504060136 55 0 0.0 0.0 0.00 0.00 0.00 64 1016.9
20260504060104 55 0 0.0 0.0 0.00 0.00 0.00 63 1016.9